Staverton, United Kingdom

9:53 AM BST on July 30, 2016 (GMT +0100)
Gloucestershire

Weather History for EGBJ - November, 2012

Change the Weather History Date:

Monday, November 5, 2012

  Actual Average Record
Temperature  
Mean Temperature 42 °F -  
Max Temperature 48 °F 48 °F 60 °F (2015)
Min Temperature 35 °F 42 °F 35 °F (2012)
Degree Days  
Heating Degree Days 24    
Moisture  
Dew Point 36 °F    
Average Humidity 77    
Maximum Humidity 93    
Minimum Humidity 62    
Precipitation  
Precipitation 0.00 in - - ()
Sea Level Pressure  
Sea Level Pressure 29.80 in    
Wind  
Wind Speed 4 mph ()    
Max Wind Speed 9 mph    
Max Gust Speed -    
Visibility 5.6 miles    
Events      
Averages and records for this station are not official NWS values.
T = Trace of Precipitation, MM = Missing Value Source: Averaged Metar Reports

Daily Weather History Graph

Daily Weather History Graph

Search for Another Location

Airport or City:

Trip Planner

Search our weather history database for the weather conditions in past years. The results will help you decide how hot, cold, wet, or windy it might be!

Date:

Astronomy

Nov. 05, 2012 Rise Set
Actual Time 7:10 AM GMT 4:32 PM GMT
Civil Twilight 6:34 AM GMT 5:08 PM GMT
Nautical Twilight 5:54 AM GMT 5:48 PM GMT
Astronomical Twilight 5:15 AM GMT 6:28 PM GMT
Moon 9:54 PM GMT (11/5) 12:25 PM GMT (11/5)
Length of Visible Light 10h 33m
Length of Day
9h 21m
Waning Gibbous, 65% of the Moon is Illuminated
Nov 5
Waning Gibbous
Nov 7
Last Quarter
Nov 13
New
Nov 20
First Quarter
Nov 28
Full

Hourly Weather History & Observations

Time (GMT) Temp. Windchill Dew Point Humidity Pressure Visibility Wind Dir Wind Speed Gust Speed Precip Events Conditions
6:50 AM 37.4 °F 32.8 °F 35.6 °F 93% 29.62 in 3.1 mi North 5.8 mph - N/A   Scattered Clouds
7:20 AM 37.4 °F 34.9 °F 35.6 °F 93% 29.65 in 3.7 mi North 3.5 mph - N/A   Scattered Clouds
7:50 AM 35.6 °F 32.8 °F 33.8 °F 93% 29.68 in 3.7 mi North 3.5 mph - N/A   Partly Cloudy
8:20 AM 35.6 °F 32.8 °F 33.8 °F 93% 29.68 in 3.7 mi North 3.5 mph - N/A   Partly Cloudy
8:50 AM 37.4 °F - 35.6 °F 93% 29.71 in 5.0 mi NNE 2.3 mph - N/A   Partly Cloudy
9:20 AM 37.4 °F - 35.6 °F 93% 29.71 in 5.6 mi NNE 2.3 mph - N/A   Unknown
9:50 AM 41.0 °F 38.0 °F 37.4 °F 87% 29.74 in 6.2 mi North 4.6 mph - N/A   Partly Cloudy
10:20 AM 41.0 °F 37.1 °F 37.4 °F 87% 29.74 in 6.2 mi North 5.8 mph - N/A   Partly Cloudy
10:50 AM 42.8 °F 39.3 °F 37.4 °F 81% 29.77 in 6.2 mi North 5.8 mph - N/A   Partly Cloudy
11:20 AM 44.6 °F 42.2 °F 37.4 °F 76% 29.77 in 6.2 mi North 4.6 mph - N/A   Partly Cloudy
11:50 AM 46.4 °F 43.5 °F 37.4 °F 71% 29.77 in 6.2 mi NNE 5.8 mph - N/A   Partly Cloudy
12:20 PM 46.4 °F 44.3 °F 37.4 °F 71% 29.77 in 6.2 mi NNE 4.6 mph - N/A   Partly Cloudy
12:50 PM 48.2 °F - 37.4 °F 66% 29.80 in 6.2 mi NNW 9.2 mph - N/A   Partly Cloudy
1:20 PM 48.2 °F - 37.4 °F 66% 29.80 in 6.2 mi North 9.2 mph - N/A   Partly Cloudy
1:50 PM 48.2 °F - 37.4 °F 66% 29.83 in 6.2 mi NNW 8.1 mph - N/A   Partly Cloudy
2:20 PM 48.2 °F - 35.6 °F 62% 29.83 in 6.2 mi NNW 5.8 mph - N/A   Partly Cloudy
2:50 PM 48.2 °F - 35.6 °F 62% 29.83 in 6.2 mi NNW 5.8 mph - N/A   Partly Cloudy
3:20 PM 48.2 °F - 35.6 °F 62% 29.86 in 6.2 mi NNW 4.6 mph - N/A   Partly Cloudy
3:50 PM 46.4 °F 44.3 °F 35.6 °F 66% 29.86 in 6.2 mi NNW 4.6 mph - N/A   Partly Cloudy
4:20 PM 44.6 °F 42.2 °F 33.8 °F 66% 29.86 in 6.2 mi NW 4.6 mph - N/A   Partly Cloudy
4:50 PM 42.8 °F 41.1 °F 33.8 °F 70% 29.89 in - NW 3.5 mph - N/A   Clear
5:20 PM 42.8 °F - 33.8 °F 70% 29.89 in - Calm Calm - N/A   Clear
5:50 PM 41.0 °F - 33.8 °F 76% 29.92 in - Calm Calm - N/A   Clear
6:20 PM 41.0 °F - 33.8 °F 76% 29.95 in - SSW 2.3 mph - N/A   Clear
6:50 PM 41.0 °F - 33.8 °F 76% 29.95 in - WSW 2.3 mph - N/A   Clear
7:20 PM 41.0 °F - 33.8 °F 76% 29.95 in - Calm Calm - N/A   Clear